{"data":{"norad_id":57773,"intl_designator":"2023-134C","name":"STARLINK-30383","alt_names":[],"object_type":"PAYLOAD","status":"ACTIVE","operator":null,"country":"US","launch_date":"2023-09-04","launch_site_code":"AFETR","launch_vehicle":null,"mission":null,"orbit_class":"UNKNOWN","rcs_meters":null,"size_class":null,"mass_kg":null,"dimensions":null,"purposes":["comms"],"wikipedia_slug":null,"has_3d_model":false,"image_url":null,"decayed_at":null,"tle_current":{"epoch":"2026-09-20T11:53:23.561376Z","epoch_age_seconds":148926,"freshness":"FRESH","line1":"1 57773U 23134C   26263.49541159  .00000538  00000+0  29083-4 0  9990","line2":"2 57773  43.0042 177.4159 0001495 271.5391  88.5289 15.27579156169267","mean_motion":15.27579156,"eccentricity":0.0001495,"inclination_deg":43.0042,"raan_deg":177.4159,"arg_perigee_deg":271.5391,"mean_anomaly_deg":88.5289,"bstar":2.9083e-5,"rev_number":16926,"period_min":94.266800796803,"perigee_km":482.02587558126,"apogee_km":484.07737097962,"semimajor_km":6861.1886232804,"source":"CELESTRAK","updated_at":"2026-09-21T09:00:33.683650Z"}}}